Regional Weather Roundup
Issued by NWS Columbia, SC

Home | Current Version | Previous Version | Text Only | Print | Product List | Glossary On
Versions: 1 2 3 4 5 6 7 8 9 10 11 12 13 14 15 16 17 18 19 20 21 22 23 24 25 26 27 28 29 30 31 32 33 34 35 36 37 38 39 40 41 42 43 44 45 46 47 48 49 50
000
ASUS42 KCAE 111810
RWRCAE
REGIONAL WEATHER ROUNDUP
NATIONAL WEATHER SERVICE COLUMBIA SC
100 PM EST THU FEB 11 2016

NOTE: "FAIR" INDICATES FEW OR NO CLOUDS BELOW 12,000 FEET WITH NO
SIGNIFICANT WEATHER AND/OR OBSTRUCTIONS TO VISIBILITY.

NOT ALL STATIONS ARE QUALITY CONTROLLED BY THE NATIONAL
WEATHER SERVICE. USE DATA WITH CAUTION...ESPECIALLY
DEWPOINT OBSERVATIONS.

SCZ001>056-GAZ040-063>065-077-111900-
...UPSTATE SOUTH CAROLINA...

CITY           SKY/WX    TMP DP  RH WIND       PRES   REMARKS
ANDERSON       SUNNY     45  20  36 SW9       30.16F
6HR MIN TEMP:  22; 6HR MAX TEMP:  46;

LIBERTY        CLOUDY    43  20  40 NW6       30.14F
6HR MIN TEMP:  13; 6HR MAX TEMP:  85;

SPARTANBURG    SUNNY     39  18  41 NW5       30.17F
CLEMSON        MOSUNNY   47  21  35 W8        30.15F
6HR MIN TEMP:  25; 6HR MAX TEMP:  48;

GREENVILLE     MOSUNNY   45  19  35 W12       30.15F
6HR MIN TEMP:  23; 6HR MAX TEMP:  45;

GREENWOOD      SUNNY     49  20  31 SW9       30.17F
6HR MIN TEMP:  23; 6HR MAX TEMP:  49;

GREER          SUNNY     41  19  41 VRB5      30.15F
6HR MIN TEMP:  21; 6HR MAX TEMP:  42;

ROCK HILL      MOSUNNY   43  18  36 W8        30.17F
6HR MIN TEMP:  18; 6HR MAX TEMP:  43; 6HR PCP: TRACE;

LAURENS        PTCLDY    43  21  42 NW5       30.16F


...CENTRAL SOUTH CAROLINA...

CITY           SKY/WX    TMP DP  RH WIND       PRES   REMARKS
COLUMBIA APT   MOSUNNY   50  18  28 CALM      30.18F
6HR MIN TEMP:  26; 6HR MAX TEMP:  50;

COLUMBIA OWENS SUNNY     48  18  30 VRB3      30.20F
6HR MIN TEMP:  29; 6HR MAX TEMP:  48;

MCENTIRE ANGB  MOSUNNY   47  19  32 VRB3      30.19F
6HR MIN TEMP:  24; 6HR MAX TEMP:  47;

ORANGEBURG     SUNNY     49  18  29 VRB5      30.20F
6HR MIN TEMP:  26; 6HR MAX TEMP:  49;

SUMTER SHAW    MOSUNNY   46  21  36 VRB5      30.18F
6HR MIN TEMP:  27; 6HR MAX TEMP:  46;

NEWBERRY       CLEAR     45  21  39 S8        30.19F
AIKEN          FAIR      48  19  32 W5        30.21F
BARNWELL       FAIR      54  21  28 W6        30.20F
CAMDEN         MOCLDY    43  43 100 VRB5      30.20F
LANCASTER      CLEAR     43  16  33 W7        30.18F
WINNSBORO      CLEAR     43  21  42 CALM      30.18F


...EASTERN AND COASTAL SOUTH CAROLINA...

CITY           SKY/WX    TMP DP  RH WIND       PRES   REMARKS
MYRTLE BEACH   MOSUNNY   43  12  28 W10       30.24F
N MYRTLE BCH   SUNNY     44  16  32 W9        30.21F
6HR MIN TEMP:  28; 6HR MAX TEMP:  44;

CONWAY         FAIR      43  18  36 SW5       30.22F
MARION         FAIR      43  14  31 W6        30.21F
HARTSVILLE     FAIR      45  18  33 W6        30.18F
FLORENCE       MOSUNNY   43  16  33 VRB3      30.20F
6HR MIN TEMP:  22; 6HR MAX TEMP:  44;

DARLINGTON     SUNNY     45  18  33 SW10      30.21F
6HR MIN TEMP:  25; 6HR MAX TEMP:  45;

CHARLESTON APT SUNNY     52  18  26 VRB7      30.21F
6HR MIN TEMP:  27; 6HR MAX TEMP:  52;

MOUNT PLEASANT FAIR      48  23  37 NW8       30.22F
WALTERBORO     CLEAR     54  19  26 W9        30.21F
BEAUFORT       SUNNY     53  19  26 VRB6      30.21F
6HR MIN TEMP:  29; 6HR MAX TEMP:  54;



...EASTERN GEORGIA...

CITY           SKY/WX    TMP DP  RH WIND       PRES   REMARKS
AUGUSTA BUSH F SUNNY     52  18  26 MISG      30.19F
6HR MIN TEMP:  26; 6HR MAX TEMP:  52;

THOMSON        SUNNY     53  25  33 NW3       30.21F
6HR MIN TEMP:  28; 6HR MAX TEMP:  53;

WASHINGTON     FAIR      54  28  37 CALM      30.16F
CLAXTON        FAIR      57  33  39 S7        30.20F
6HR MIN TEMP:  28; 6HR MAX TEMP:  57;

SYLVANIA       CLEAR     54  28  36 NW7       30.20F
6HR MIN TEMP:  28; 6HR MAX TEMP:  54;

STATESBORO     SUNNY     58  12  16 SW5       30.20F
6HR MIN TEMP:  30; 6HR MAX TEMP:  58;

SAVANNAH       SUNNY     56  23  27 SW8       30.20F
6HR MIN TEMP:  28; 6HR MAX TEMP:  56;



...SOUTHERN NORTH CAROLINA...

CITY           SKY/WX    TMP DP  RH WIND       PRES   REMARKS
CHARLOTTE      MOSUNNY   42  14  32 W5        30.18F
6HR MIN TEMP:  20; 6HR MAX TEMP:  42;

WADESBORO      CLEAR     43  13  29 W6        30.19F
6HR MIN TEMP:  17; 6HR MAX TEMP:  43;

ROCKINGHAM     CLEAR     41  15  33 W6        30.18F
6HR MIN TEMP:  19; 6HR MAX TEMP:  41;

RUTHERFORDTON  SUNNY     44  18  35 NW16G24   30.14F
6HR MIN TEMP:  18; 6HR MAX TEMP:  44;

ASHEVILLE      SUNNY     36  16  44 N12       30.10F WCI  28
6HR MIN TEMP:  20; 6HR MAX TEMP:  37;


$$



USA.gov is the U.S. government's official web portal to all federal, state and local government web resources and services.